GW4151 Weather Reports


Display with metric or nautical units.
time (UTC)temp
F
wind
direction
speed
MPH
gust
MPH
rain 1hr
in
rain 24hr
in
rain mn
in
humidity
%
barometer
mb
20260509084917 51 149 4.0 6.0 0.00 0.00 0.00 89 983.1
20260509083414 51 168 3.0 6.0 0.00 0.00 0.00 88 983.4
20260509081911 52 181 5.0 7.0 0.00 0.00 0.00 87 983.5
20260509080409 52 260 4.0 8.0 0.00 0.00 0.00 86 983.8
20260509074907 53 144 2.0 7.0 0.00 0.00 0.00 84 983.6
20260509073403 52 151 5.0 7.0 0.00 0.00 0.00 84 984.1
20260509071859 51 147 2.0 10.0 0.00 0.00 0.00 81 984.3
20260509070356 51 148 2.0 6.0 0.00 0.00 0.00 78 984.4
20260509064856 52 208 2.0 4.0 0.00 0.00 0.00 75 984.8
20260509063353 52 169 3.0 9.0 0.00 0.00 0.00 73 984.8
20260509061850 52 197 4.0 7.0 0.00 0.00 0.00 68 985.0
20260509060348 51 196 3.0 6.0 0.00 0.00 0.00 62 985.1
20260509054847 51 196 1.0 2.0 0.00 0.00 0.00 52 985.1
20260509053344 51 154 5.0 7.0 0.00 0.00 0.00 49 985.3
20260509051843 51 150 2.0 4.0 0.00 0.00 0.00 49 985.3
20260509050340 51 192 3.0 4.0 0.00 0.00 0.00 48 985.1
20260509044837 52 150 3.0 6.0 0.00 0.00 0.00 47 985.3
20260509043332 52 168 2.0 6.0 0.00 0.00 0.00 46 985.3
20260509041828 52 159 3.0 3.0 0.00 0.00 0.00 45 985.4
20260509040326 52 130 1.0 3.0 0.00 0.00 0.00 46 985.6
20260509034822 50 180 0.0 0.0 0.00 0.00 0.00 47 985.8
20260509033320 51 169 0.0 0.0 0.00 0.00 0.00 46 985.8
20260509031818 53 151 0.0 2.0 0.00 0.00 0.00 41 985.8
20260509030316 53 149 2.0 3.0 0.00 0.00 0.00 40 986.1
20260509024815 53 162 1.0 1.0 0.00 0.00 0.00 41 986.3
20260509023312 53 146 2.0 3.0 0.00 0.00 0.00 37 986.5
20260509021808 53 205 0.0 0.0 0.00 0.00 0.00 38 986.5
20260509020307 55 132 0.0 4.0 0.00 0.00 0.00 35 986.7
20260509014804 50 166 0.0 1.0 0.00 0.00 0.00 42 986.5
20260509013300 51 163 0.0 0.0 0.00 0.00 0.00 43 986.3
20260509011756 53 180 0.0 0.0 0.00 0.00 0.00 38 986.3
20260509010254 56 168 0.0 0.0 0.00 0.00 0.00 32 986.3
20260509004754 57 169 0.0 0.0 0.00 0.00 0.00 29 986.3
20260509003253 59 169 0.0 2.0 0.00 0.00 0.00 27 986.5
20260509001751 60 150 3.0 3.0 0.00 0.00 0.00 25 986.6
20260509000248 61 160 2.0 3.0 0.00 0.00 0.00 25 986.6
20260508234745 62 210 2.0 3.0 0.00 0.00 0.00 23 986.8
20260508233244 62 202 2.0 3.0 0.00 0.00 0.00 24 987.1
20260508231742 63 273 3.0 6.0 0.00 0.00 0.00 23 987.2
20260508230237 62 238 4.0 8.0 0.00 0.00 0.00 24 987.6
20260508224734 62 220 3.0 8.0 0.00 0.00 0.00 24 987.4
20260508223232 62 268 6.0 9.0 0.00 0.00 0.00 25 987.4
20260508221728 62 262 3.0 8.0 0.00 0.00 0.00 27 987.4
20260508220228 64 240 4.0 7.0 0.00 0.00 0.00 27 987.5
20260508214724 64 180 1.0 6.0 0.00 0.00 0.00 28 987.5
20260508213220 64 227 2.0 7.0 0.00 0.00 0.00 28 987.6
20260508211715 64 246 4.0 6.0 0.00 0.00 0.00 28 987.7
20260508210211 62 247 3.0 8.0 0.00 0.00 0.00 28 987.8
20260508204706 64 267 6.0 7.0 0.00 0.00 0.00 27 987.9
20260508203201 64 233 1.0 8.0 0.00 0.00 0.00 29 988.2
20260508201657 62 347 3.0 7.0 0.00 0.00 0.00 29 988.2
20260508200153 62 258 4.0 9.0 0.00 0.00 0.00 28 988.5
20260508194648 63 288 6.0 8.0 0.00 0.00 0.00 27 988.6
20260508193145 61 196 2.0 9.0 0.00 0.00 0.00 29 988.8
20260508191641 62 226 3.0 6.0 0.00 0.00 0.00 29 989.0
20260508190137 60 253 5.0 9.0 0.00 0.00 0.00 26 989.0
20260508184635 60 289 3.0 8.0 0.00 0.00 0.00 28 989.2
20260508183130 61 276 7.0 9.0 0.00 0.00 0.00 27 989.2
20260508181630 63 235 2.0 6.0 0.00 0.00 0.00 30 989.2
20260508180127 62 28 2.0 4.0 0.00 0.00 0.00 28 989.3
20260508174624 60 265 4.0 8.0 0.00 0.00 0.00 27 989.5
20260508173119 60 251 3.0 7.0 0.00 0.00 0.00 29 989.8
20260508171615 61 286 5.0 10.0 0.00 0.00 0.00 26 989.8
20260508170112 60 260 7.0 10.0 0.00 0.00 0.00 29 990.1
20260508164608 62 264 2.0 3.0 0.00 0.00 0.00 30 990.3
20260508163105 61 181 1.0 4.0 0.00 0.00 0.00 32 990.6
20260508161602 61 202 2.0 3.0 0.00 0.00 0.00 32 990.7
20260508160100 59 195 1.0 4.0 0.00 0.00 0.00 34 990.8
20260508154557 60 208 2.0 3.0 0.00 0.00 0.00 35 990.7
20260508153053 60 235 2.0 2.0 0.00 0.00 0.00 36 990.7
20260508151548 59 240 1.0 4.0 0.00 0.00 0.00 42 990.9
20260508150044 59 164 1.0 3.0 0.00 0.00 0.00 44 991.0
20260508144541 59 191 0.0 4.0 0.00 0.00 0.00 46 991.2
20260508143038 59 195 2.0 3.0 0.00 0.00 0.00 53 991.0
20260508141534 57 174 2.0 3.0 0.00 0.00 0.00 59 991.1
20260508140031 54 116 3.0 3.0 0.00 0.00 0.00 65 991.2
20260508134526 54 216 3.0 3.0 0.00 0.00 0.00 67 991.4
20260508133023 54 176 2.0 6.0 0.00 0.00 0.00 70 991.3
20260508131518 53 183 1.0 2.0 0.00 0.00 0.00 70 991.4
20260508130014 51 189 2.0 3.0 0.00 0.00 0.00 72 991.7
20260508124512 51 191 1.0 3.0 0.00 0.00 0.00 70 991.5
20260508123010 50 180 0.0 1.0 0.00 0.00 0.00 73 991.7
20260508121508 46 183 0.0 1.0 0.00 0.00 0.00 78 991.6
20260508120006 44 158 0.0 0.0 0.00 0.00 0.00 78 991.2
20260508114503 43 156 1.0 1.0 0.00 0.00 0.00 79 991.2
20260508113000 44 161 0.0 0.0 0.00 0.00 0.00 79 991.0
20260508111456 39 167 0.0 0.0 0.00 0.00 0.00 91 990.8
20260508105955 34 171 0.0 0.0 0.00 0.00 0.00 93 990.9
20260508104453 33 171 0.0 0.0 0.00 0.00 0.00 93 991.1
20260508102949 34 162 0.0 0.0 0.00 0.00 0.00 92 990.7
20260508101448 34 163 0.0 0.0 0.00 0.00 0.00 92 990.7
20260508095945 35 163 0.0 0.0 0.00 0.00 0.00 91 991.0
20260508094442 35 163 0.0 0.0 0.00 0.00 0.00 90 990.9
20260508092939 35 172 0.0 0.0 0.00 0.00 0.00 89 991.2
20260508091438 37 180 0.0 0.0 0.00 0.00 0.00 89 991.1